Location: Dürabuch
(48.2640°N, 11.2185°E)
Time: 10:21:26
(UTC+00:00)

UNK - Pass Details

Date: 23 May 2024
Orbit: 660 x 680 km, 98.3° (Epoch: 15 June)

Event Time Altitude Azimuth Distance (km) Brightness Sun altitude
Rises 01:42:01 0° 151° (SSE) 3,028 6.8 -13.3°
Reaches altitude 10° 01:44:17 10° 147° (SSE) 2,118 6.1 -13.1°
Maximum altitude 01:48:48 55° 71° (ENE) 820 4.5 -12.7°
Drops below altitude 10° 01:53:21 10° 354° (N) 2,129 7.0 -12.2°
Sets 01:55:37 0° 350° (N) 3,046 7.8 -12.0°
